Strona główna
METAR-TAF:

METAR-TAF

Lotnisko :

Wheaton Municipal Airport

Wheaton, Minnesota, Stany Zjednoczone

Szerokość geograficzna: 45-42N, Długość geograficzna: 096-30W, wysokość: 313 m

Aktualna obserwacja pogody

Raport powstał 17 minut temu, godzina 06:14 UTC
Cisza
Temperatura -8°C
Wilgotność 92%
Ciśnienie 1019 hPa
Widzialność: 16.1 km

METAR: KETH 280614Z AUTO 00000KT 10SM M08/M09 A3009 RMK AO2

czas: 00:31 (06:31 UTC)


TAF: brakujący

Obserwacja i prognoza pogody dla ponad 4000 lotnisk (raport METAR i TAF).

Dostępne stacje oznaczono żółtymi i czerwonymi punktami na mapie.

Najedź kursorem aby zobaczyć nazwę stacji.

Kliknij aby zobaczyć obserwacje i prognozy pogody.

Aby zmienić mapę: kliknij na zielony przycisk z czarnym krzyżykiem, aby powiększyć; na zielony przycisk z myślnikiem, aby pomniejszyć; na zielone strzałki, aby przejść do map sąsiednich.


METAR-TAF: